Regional Weather Roundup
Issued by NWS

Home | Current Version | Previous Version | Text Only | Print | Product List | Glossary On
Versions: 1 2 3 4 5 6 7 8 9 10 11 12 13 14 15 16 17 18 19 20 21 22 23 24 25 26 27 28 29 30 31 32 33 34 35 36 37 38 39 40 41 42 43 44 45 46 47 48 49 50
000
ASUS45 KABQ 030410
RWRNM
NEW MEXICO REGIONAL WEATHER ROUNDUP
NATIONAL WEATHER SERVICE ALBUQUERQUE NM
1000 PM MDT SUN AUG 02 2015

NOTE: "FAIR" MEANS FEW OR NO CLOUDS BELOW 12,000 FEET AGL WITH NO
       SIGNIFICANT WEATHER OR OBSTRUCTIONS TO VISION.

      THIS PRODUCT IS RELEASED AS TWO VERSIONS.  ONE VERSION NEAR
      THE TOP OF THE HOUR CONTAINING PRELIMINARY DATA FROM ALBUQUERQUE
      AND OTHER STATIONS.  A FINAL VERSION WITH ADDITIONAL DATA IS
      ISSUED ABOUT 10 MINUTES AFTER THE HOUR.

NMZ501-503-504-510>518-030500-
NORTHWEST PLATEAU/NORTHCENTRAL MOUNTAINS

CITY           SKY/WX    TMP DP  RH WIND       PRES   REMARKS
FARMINGTON     TSTM      66  59  78 SE12      30.17R
LOS ALAMOS     CLOUDY    60  55  84 E5        30.27R
SANTA FE       PTCLDY    65  54  67 N12       30.20R
TAOS           CLOUDY    61  48  63 N6        30.29R
ANGEL FIRE     FAIR      53  50  92 CALM      30.39R

$$
NMZ402-403-502-505>509-030500-
WESTCENTRAL MOUNTAINS/SOUTHWEST MOUNTAINS

CITY           SKY/WX    TMP DP  RH WIND       PRES   REMARKS
GALLUP         PTCLDY    59  55  87 CALM      30.24R
GRANTS         TSTM      62  58  86 NW8       30.26R
SILVER CITY      N/A     72  57  60 E6        30.15R

$$
NMZ407-409-411-412-030500-
SOUTHERN DESERTS

CITY           SKY/WX    TMP DP  RH WIND       PRES   REMARKS
LORDSBURG      FAIR      81  54  39 CALM      30.03R
DEMING         MOCLDY    73  61  65 E8        30.06R
LAS CRUCES     CLOUDY    76  63  63 SE3       30.07R
HOLLOMAN AFB   PTCLDY    81  56  42 SW8       30.00R
ALAMOGORDO     PTCLDY    77  57  50 SW6       30.02R
T OR C         PTCLDY    74  60  61 W10       30.07R

$$
NMZ519>523-030500-
CENTRAL VALLEYS/CENTRAL HIGHLANDS

CITY           SKY/WX    TMP DP  RH WIND       PRES   REMARKS
ALBUQUERQUE    MOCLDY    73  55  53 CALM      30.13R
DOUBLE EAGLE   MOCLDY    66  61  82 VRB3      30.17R
MORIARTY ARPT    N/A     67  60  77 CALM      30.20R
CLINES CORNERS MOCLDY    63  54  72 E9        30.24R
BELEN          FAIR      70  57  62 CALM      30.12R
SOCORRO        FAIR      72  62  71 NW7       30.08S

$$
NMZ524>526-539-540-030500-
SOUTHCENTRAL MOUNTAINS

CITY           SKY/WX    TMP DP  RH WIND       PRES   REMARKS
RUIDOSO          N/A    N/A N/A N/A MISG        N/A

$$
NMZ527>531-030500-
NORTHEAST HIGHLANDS/NORTHEAST PLAINS

CITY           SKY/WX    TMP DP  RH WIND       PRES   REMARKS
RATON          NOT AVBL
CLAYTON        CLOUDY    72  57  59 W10       30.07S

$$
NMZ532>537-030500-
EASTCENTRAL PLAINS

CITY           SKY/WX    TMP DP  RH WIND       PRES   REMARKS
TUCUMCARI      CLOUDY    70  63  78 CALM      30.05S
CANNON AFB     MOCLDY    71  61  71 S6        30.04R
CLOVIS AIRPORT CLOUDY    70  59  68 N13       30.06R

$$
NMZ028-029-538-030500-
SOUTHEAST PLAINS

CITY           SKY/WX    TMP DP  RH WIND       PRES   REMARKS
ROSWELL        MOCLDY    82  56  40 E9        29.98R
ARTESIA        MOCLDY    86  57  37 W9        29.97R
CARLSBAD       CLOUDY    86  59  39 MISG      29.94R
HOBBS            N/A    N/A N/A N/A MISG        N/A


$$



USA.gov is the U.S. government's official web portal to all federal, state and local government web resources and services.